Powrót do katalogu

CZ-6A DEB

AktywnySSO
NORAD 54474·DEBRIS·🇨🇳 China

Wystrzelony Nov 11, 2022 z Taiyuan Satellite Launch Center

Loading…

Następne Przeloty (najbliższe 24 godziny)

TLE

ŚwieżeSource: Space-Track

Epoka: Sep 14, 2026, 02:49 UTC

1 54474U 22151HA  26257.11757198  .00000586  00000-0  46334-3 0  9998
2 54474  98.9304 216.6774 0137901 218.4801 140.6464 13.91071624194482

Śledź CZ-6A DEB w czasie rzeczywistym z AllMySat

Download on the App Store